RH
93 95 93 99 99 92 94 92 89 92 92 92 92 93 92 91 91 95 95 100 98 94 93 79 49 54 66 94 84 83 68 85 86 88 92 73 56 51 51 38 38 42 38 32 31 32 35
95 97 98 95 94 92 94 89 86 94 90 87 91 94 91 91 95 85 96 99 99 94 100 80 52 62 69 74 66 79 71 75 82 84 85 75 55 48 42 38 38 33 36 37 35 32 36
94 88 95 96 96 97 97 88 86 83 76 72 93 92 94 92 95 79 78 93 100 98 99 86 60 66 81 71 62 66 73 65 75 78 84 80 67 60 52 47 46 44 55 46 42 40 41
97 99 96 95 98 98 97 90 81 83 80 74 65 84 94 90 88 78 85 80 99 100 99 93 71 83 79 71 69 63 61 65 77 79 80 83 80 70 68 58 48 55 55 70 39 39 37
92 99 97 87 96 93 93 98 90 83 77 86 81 77 91 75 80 81 84 78 79 93 99 98 87 94 71 70 66 68 62 68 76 84 88 94 82 75 69 65 66 53 69 56 45 34 34
99 98 94 96 96 96 96 91 80 84 77 76 77 76 85 77 72 86 82 75 54 88 98 99 93 92 74 67 60 66 62 69 70 88 100 91 76 72 70 74 82 63 58 53 48 36 37
93 92 98 96 92 90 94 94 91 82 78 75 77 79 91 85 81 83 83 84 73 99 100 92 91 62 63 64 66 61 66 71 62 74 73 83 83 88 68 62 57 51 47 46 40 31 39
99 97 97 95 86 89 94 85 78 85 89 75 78 84 92 91 91 94 89 100 87 96 99 84 84 63 68 68 66 63 69 68 66 82 61 73 81 55 51 49 49 46 52 54 43 34 38
99 93 97 84 83 90 89 78 85 88 79 77 82 91 86 87 97 94 93 75 94 96 99 91 87 69 71 64 62 64 68 62 63 68 69 62 52 44 49 50 52 54 57 56 52 42 40
100 99 93 82 86 90 95 86 77 80 90 89 93 91 91 98 98 92 98 90 100 95 100 98 81 69 74 66 60 64 64 59 60 71 67 67 48 45 52 57 50 63 42 46 49 57 68
96 100 84 82 78 95 92 82 94 94 90 89 87 86 90 91 99 100 92 98 99 99 98 91 81 70 72 59 62 66 63 55 57 56 57 62 54 58 59 52 46 53 49 51 54 63 68
98 98 80 80 77 93 83 93 84 89 92 86 86 85 86 95 96 98 100 87 87 96 97 99 83 74 74 61 60 63 64 59 52 50 50 52 44 47 51 46 49 51 51 54 59 66 89
97 98 81 80 82 92 89 88 93 91 92 92 87 85 82 100 96 95 96 84 94 97 90 99 90 74 65 68 69 66 74 76 77 92 90 62 57 49 48 59 53 61 67 93 96 97 89
90 98 81 81 92 91 88 89 91 91 91 84 89 97 95 99 99 93 84 81 96 96 98 57 72 71 70 62 69 70 79 83 61 56 75 86 78 59 53 58 65 67 64 90 80 85 67
98 99 81 86 90 91 84 94 87 91 93 97 94 97 98 95 95 92 97 84 79 70 55 74 75 80 87 63 68 71 75 71 57 56 77 77 66 47 51 48 52 66 84 54 77 60 84
97 94 90 85 92 93 91 94 89 99 97 100 97 94 100 89 79 81 99 98 99 48 51 57 81 62 83 71 67 68 71 53 52 48 46 60 73 50 54 46 46 53 52 90 92 97 80
99 94 88 91 73 91 90 93 93 99 100 94 94 97 99 92 89 95 100 100 69 48 48 50 57 58 57 67 59 63 60 48 45 48 46 54 59 75 69 71 69 69 76 70 67 81 91
96 94 90 93 82 90 91 93 64 99 95 97 98 97 93 88 97 99 100 97 66 55 47 43 42 45 53 55 58 54 55 48 42 44 56 52 55 90 79 47 49 52 65 63 88 78 80
99 91 96 91 84 66 96 89 64 97 100 98 98 97 97 97 96 100 95 80 70 55 49 48 48 44 43 52 63 49 50 45 42 46 55 53 77 91 80 59 48 59 54 55 63 73 85
94 87 90 86 93 73 89 65 48 90 98 98 96 99 85 92 81 84 94 90 78 57 54 46 47 42 46 50 47 55 60 52 45 47 48 47 65 87 93 81 84 97 81 64 73 98 79
97 87 92 93 92 90 88 80 31 82 99 97 96 98 97 94 82 66 70 81 63 60 53 49 54 47 48 53 54 53 54 62 52 55 49 57 96 85 80 68 68 76 76 72 92 92 98
96 90 87 93 91 91 79 79 33 82 91 96 99 99 99 71 58 57 71 92 58 55 53 55 58 52 48 51 59 55 50 55 62 59 61 60 98 95 87 65 68 80 68 69 81 95 96
93 91 90 91 89 92 52 78 49 64 98 98 98 100 100 71 60 54 56 53 55 53 62 54 51 52 65 69 65 58 61 61 58 61 67 81 96 98 89 69 80 91 76 86 91 85 92
96 94 91 91 91 90 78 80 55 36 96 100 100 100 98 73 58 54 48 47 54 56 61 58 55 63 76 74 73 71 65 64 67 68 60 76 94 95 98 92 96 70 62 75 82 72 75
99 97 93 91 74 83 82 71 67 28 55 98 100 100 99 96 56 52 48 48 52 58 55 60 72 77 74 75 78 75 78 80 74 76 72 66 79 94 99 86 64 48 58 61 77 82 58
99 98 95 94 86 59 89 40 28 43 31 88 99 100 100 98 72 68 49 48 56 55 61 67 81 78 78 82 77 75 80 75 86 88 75 75 75 96 97 98 91 57 50 52 70 94 60
100 100 98 94 95 92 91 94 82 47 54 34 100 100 100 99 89 78 57 58 51 55 80 76 88 89 85 90 85 82 72 56 69 78 92 96 95 97 96 98 78 46 51 62 88 72 59
100 94 100 98 97 96 93 94 92 91 73 51 58 100 100 100 92 86 78 64 57 66 73 89 89 93 94 94 89 71 75 71 70 54 68 75 91 95 98 100 92 46 50 65 60 56 56
100 94 100 100 99 97 98 94 95 93 92 81 91 96 92 100 97 91 85 76 73 73 78 80 87 79 82 93 82 84 86 72 64 71 53 69 61 75 71 70 48 46 49 52 56 62 61
Wind_Speed
20 21 24 24 24 24 22 24 25 26 26 26 26 26 25 23 22 22 20 17 18 17 18 12 10 8 12 10 11 6 3 14 18 19 17 15 18 14 12 11 16 11 16 17 16 19 11
22 25 25 26 26 25 26 27 27 27 29 28 27 28 27 24 23 21 19 18 16 17 21 15 11 11 16 14 10 4 5 5 10 16 19 18 14 18 14 17 8 7 10 14 22 10 13
24 25 26 28 27 28 29 32 31 29 29 29 28 27 27 27 25 22 18 20 14 19 23 16 13 14 13 17 8 9 11 8 7 15 21 19 12 6 1 3 9 5 7 10 14 13 10
26 27 26 30 31 30 31 33 30 31 29 28 27 28 28 25 22 20 16 18 18 12 15 17 14 13 9 12 18 11 7 9 6 13 20 17 11 7 5 3 0 4 9 10 10 18 17
24 28 29 30 32 33 32 32 31 30 29 27 26 25 24 23 20 20 18 20 24 22 18 18 16 13 8 11 18 18 9 14 6 9 14 11 10 4 4 3 3 8 7 11 10 5 4
26 27 30 31 31 32 35 34 31 30 29 27 25 23 24 21 21 21 20 22 22 17 20 18 10 10 12 11 13 15 16 13 11 11 12 7 4 4 3 5 6 7 11 9 9 5 4
28 28 29 30 31 31 32 31 30 29 27 26 22 21 23 24 20 23 24 19 6 7 26 8 12 2 19 17 15 17 17 16 13 13 5 11 4 8 12 11 10 12 10 8 10 9 9
27 30 29 30 33 34 33 32 30 29 27 23 22 23 21 22 21 25 15 8 11 2 8 23 18 6 16 18 13 18 20 11 10 9 6 3 6 8 12 12 8 6 7 10 9 8 7
28 29 31 34 35 33 32 31 29 27 25 22 25 22 20 24 27 25 22 22 15 14 7 21 21 15 17 12 11 22 23 11 9 8 8 7 2 8 10 5 6 7 7 7 9 11 11
29 29 33 34 33 32 31 30 28 26 26 26 22 21 23 28 23 20 10 11 22 23 3 13 15 12 13 9 7 21 22 10 5 11 10 5 6 3 5 9 7 5 3 6 8 7 3
30 30 33 32 33 31 30 29 28 28 26 24 22 23 28 26 27 18 7 8 10 6 4 14 8 18 16 10 21 16 21 8 8 10 6 3 4 6 4 5 5 3 7 4 5 6 8
30 29 32 32 32 30 30 30 29 28 28 22 23 30 34 30 15 9 8 13 20 4 1 5 8 11 13 17 5 18 13 5 2 3 7 5 4 1 5 4 4 5 1 2 4 2 5
29 28 32 32 32 30 31 31 30 29 24 23 29 36 25 13 4 10 22 20 5 6 5 7 10 13 15 13 10 15 10 6 5 5 3 3 7 4 4 5 5 7 2 2 2 2 6
27 29 32 31 31 31 31 31 33 28 26 28 35 26 6 2 7 15 21 3 2 5 2 6 15 14 10 14 9 12 12 8 10 7 5 5 4 15 8 7 4 8 4 3 5 3 3
27 30 33 29 29 30 30 31 34 28 31 30 25 8 8 9 15 20 6 3 2 8 9 11 19 13 6 11 7 10 10 7 10 10 4 5 3 5 11 5 6 4 5 1 5 5 2
28 29 32 30 29 30 29 31 33 32 36 26 10 7 10 8 12 14 2 1 3 7 14 17 5 6 7 14 8 8 12 11 10 13 8 4 3 3 6 5 7 8 1 2 0 3 6
28 28 28 27 30 31 30 31 31 35 35 13 10 4 7 8 11 3 1 3 5 17 15 1 10 7 9 16 6 9 11 4 14 14 12 4 1 4 5 8 9 7 4 4 3 3 4
26 27 28 29 30 31 29 32 31 34 26 12 9 3 8 10 3 2 3 4 9 8 6 6 6 7 9 15 7 9 9 4 19 10 10 4 2 3 9 8 12 12 7 10 3 5 5
26 26 28 26 28 31 29 32 30 31 19 8 4 5 3 3 2 1 5 6 4 3 4 3 4 5 14 11 6 6 9 5 2 6 10 8 3 2 1 4 8 5 7 11 13 9 17
25 25 25 26 26 29 29 33 28 28 13 8 3 2 4 4 1 4 4 5 3 11 11 8 8 7 13 7 3 7 7 2 5 3 7 14 4 4 3 2 4 4 4 9 7 7 13
23 24 24 24 25 27 27 30 28 28 17 4 6 3 3 1 2 5 3 2 2 4 4 3 2 6 9 5 6 6 10 7 5 4 3 1 3 3 7 13 10 12 16 17 17 19 14
22 22 23 23 22 24 25 27 27 27 15 19 3 2 5 3 2 7 6 4 3 6 7 5 9 6 3 6 6 7 7 8 5 7 6 3 2 2 6 14 14 16 16 16 16 18 17
20 20 22 22 23 24 24 24 26 22 22 9 9 7 3 4 4 2 2 3 4 3 8 9 6 6 9 8 6 5 5 5 3 5 7 5 3 1 4 7 9 6 6 6 7 11 9
18 19 20 20 21 21 21 22 23 20 18 13 10 4 3 1 3 3 4 2 5 6 7 5 6 4 2 2 1 2 2 4 5 5 3 5 5 2 4 7 2 4 6 8 8 11 11
18 19 18 19 21 20 18 19 20 20 14 10 13 5 3 3 3 2 2 4 9 5 7 8 6 5 3 2 1 3 3 3 7 6 9 7 4 2 2 2 8 4 2 2 3 5 5
17 17 17 18 20 20 19 18 16 17 14 7 7 9 3 4 2 10 2 1 2 3 3 6 4 1 1 1 1 1 1 3 4 3 3 7 11 2 2 3 3 2 2 3 7 3 4
19 17 17 17 18 18 18 18 17 15 15 12 5 12 4 4 4 5 2 2 4 2 3 4 2 1 1 1 1 2 1 2 2 4 5 3 3 7 7 3 6 6 3 6 1 4 8
19 19 17 17 17 17 16 16 17 16 14 13 6 10 8 5 11 4 3 4 4 3 1 5 3 1 1 1 2 0 1 3 2 1 5 6 6 4 3 4 5 2 5 1 3 8 10
19 19 19 17 17 17 16 14 16 15 12 11 7 9 11 7 7 10 8 5 3 2 6 5 2 2 5 3 1 2 2 3 4 2 3 2 4 4 7 5 6 6 3 3 6 9 9
Wind_Direction
348 341 341 338 334 330 329 325 327 324 324 323 324 321 321 306 309 309 279 282 261 258 237 254 245 219 196 212 242 252 259 217 219 212 204 207 207 210 225 227 236 229 249 252 254 272 297
343 340 333 328 330 328 322 317 322 321 318 317 318 317 320 304 309 303 299 273 259 248 232 237 228 203 198 232 219 215 156 188 204 212 202 200 200 212 230 241 220 221 284 264 267 252 262
338 333 330 327 326 325 323 322 320 317 318 315 312 313 314 309 303 304 296 266 279 244 226 220 211 198 212 214 207 205 211 189 209 218 205 201 217 186 230 308 318 328 313 277 260 254 241
333 335 334 331 325 322 322 316 313 315 316 316 310 310 310 307 297 303 295 279 268 232 230 209 199 184 230 224 224 239 202 197 223 202 211 194 202 147 77 80 315 254 247 261 245 222 227
337 336 332 328 325 325 317 319 320 320 317 314 311 311 309 309 309 305 302 297 273 238 229 195 190 188 229 211 215 216 183 181 164 190 190 163 151 120 134 122 246 228 266 224 256 187 176
336 331 329 328 329 329 324 325 326 321 320 316 313 312 315 313 305 307 312 298 254 259 218 181 186 193 218 201 172 177 170 178 165 148 131 155 118 152 186 164 197 219 222 249 274 167 176
330 335 336 338 333 332 328 329 327 325 322 318 315 316 317 309 307 307 308 316 241 206 191 171 176 237 153 142 153 168 165 155 171 175 175 174 183 189 192 197 236 275 299 297 311 326 336
335 340 338 330 332 333 332 331 330 327 324 321 316 323 306 312 309 312 289 255 248 128 241 187 204 169 150 143 139 164 162 151 175 189 161 106 242 217 211 212 241 298 290 286 293 302 310
338 342 330 332 337 337 336 334 333 331 329 328 327 321 310 320 315 304 270 248 251 235 285 187 187 163 158 164 143 163 170 149 173 188 180 187 137 233 249 255 240 261 253 279 293 304 293
339 339 334 340 342 341 339 338 336 335 334 330 322 316 321 323 320 322 282 254 224 228 251 159 172 165 163 164 131 163 174 146 176 196 179 236 251 183 210 227 219 251 298 336 327 321 266
341 338 339 342 344 343 341 340 340 336 330 327 322 323 319 319 301 296 297 180 185 188 193 143 148 154 167 181 126 170 179 181 174 182 165 206 213 182 214 223 212 232 40 8 328 320 344
342 340 342 344 345 343 343 341 339 337 335 327 320 323 324 316 295 269 183 149 124 318 194 112 146 156 154 145 93 152 175 137 2 263 184 195 78 166 234 203 288 68 36 226 269 245 254
341 339 344 347 347 344 346 342 343 338 333 324 323 324 319 302 275 176 144 132 98 248 177 118 140 156 163 142 127 153 165 167 149 129 194 270 229 159 265 167 189 111 80 331 240 206 235
343 341 346 349 349 345 347 342 344 337 333 330 328 330 334 120 169 158 153 145 269 101 137 170 136 147 165 147 144 162 161 177 219 230 137 182 213 195 174 217 162 188 187 203 269 222 306
343 343 348 350 349 350 347 346 342 342 339 341 338 30 66 124 135 155 162 184 233 130 137 137 136 151 132 179 138 158 173 191 199 220 204 157 236 104 151 189 197 136 202 261 306 278 264
345 348 345 353 350 351 350 348 343 342 343 345 342 73 68 127 142 158 235 83 278 130 134 146 99 170 153 173 153 160 176 193 197 195 222 20 150 162 153 177 216 203 68 78 60 267 261
347 350 349 348 350 350 350 349 348 348 357 24 67 60 75 147 136 66 355 305 145 114 147 290 136 135 144 160 178 174 177 163 187 191 207 117 234 75 63 207 187 184 232 224 315 214 244
348 352 352 348 352 351 353 352 355 358 5 35 48 50 102 122 61 346 329 327 8 68 61 82 112 125 145 158 149 172 194 270 185 156 187 151 190 232 214 234 209 202 204 213 181 238 231
347 352 350 352 353 353 356 355 1 3 5 18 45 66 98 30 95 42 290 106 56 38 57 66 88 136 144 156 140 202 112 72 133 168 157 160 195 260 264 198 227 218 222 223 235 279 247
348 352 355 351 351 353 359 358 2 10 20 53 38 61 345 346 199 95 11 46 48 28 50 58 111 116 146 148 359 124 97 136 171 185 69 157 178 206 207 69 110 273 261 253 242 256 268
346 351 354 353 352 353 359 2 2 13 32 74 41 21 346 65 312 112 71 74 0 90 60 59 43 114 142 153 102 143 122 125 164 165 145 307 206 279 264 272 280 271 270 263 251 254 258
343 350 354 351 351 351 358 4 7 13 36 47 69 11 342 291 223 124 125 233 59 66 9 52 96 89 54 112 57 159 167 174 170 160 179 195 264 347 279 267 255 257 262 260 266 267 264
340 348 351 354 357 355 0 3 6 13 27 37 18 11 1 348 312 257 70 117 95 119 35 31 95 99 78 48 40 45 54 53 106 148 190 142 178 354 265 327 313 270 242 216 243 257 260
335 343 348 354 350 354 360 356 1 16 25 32 19 10 326 156 262 103 95 87 113 36 103 69 40 66 77 18 2 101 245 233 185 211 203 169 158 223 279 301 291 194 174 203 236 281 278
330 336 343 346 351 351 349 349 357 2 13 19 12 15 337 290 317 124 142 107 106 98 95 88 62 93 98 350 268 199 175 210 220 200 204 212 190 256 270 286 265 308 294 257 217 287 307
323 330 336 340 342 349 353 350 348 354 1 357 358 359 324 322 28 339 206 184 183 157 135 116 119 179 350 275 239 233 179 261 129 125 148 216 207 212 350 319 282 166 152 145 104 246 318
320 325 327 334 334 341 349 352 352 350 348 356 340 344 327 289 288 352 303 215 175 196 100 115 100 86 168 249 270 242 260 38 224 193 172 168 185 222 238 249 280 280 115 123 272 295 327
316 321 319 326 326 332 340 347 349 346 343 351 322 319 354 293 284 273 319 306 158 260 165 140 134 90 59 220 266 287 17 291 307 196 175 175 172 192 172 223 269 236 331 302 253 313 320
314 319 313 320 318 324 331 340 336 339 337 338 329 301 310 268 269 288 232 211 222 125 115 142 79 134 196 246 301 10 330 298 298 280 7 248 213 175 199 217 273 345 256 331 312 311 321